User: anonymous   Login
Location: Dortmund
(51.5019°N, 7.6520°E)
Time: 08:58:14
(UTC+02:00)
Language:

ISS - Orbit

View from above orbital plane
View from above orbital plane
View from above satellite
View from above satellite

Ground track
Ground track

The orbit data is extracted from the following two-line orbital elements,

1 25544U 98067A   17264.55185657  .00016717  00000-0  10270-3 0  9010
2 25544  51.6388 277.9410 0003952 307.2642  52.8149 15.54223349 36732
Epoch (UTC): 21 September 2017 13:14:40
Eccentricity: 0.0003952
inclination: 51.6388°
perigee height: 402 km
apogee height: 407 km
right ascension of ascending node: 277.9410°
argument of perigee: 307.2642°
revolutions per day: 15.54223349
mean anomaly at epoch: 52.8149°
orbit number at epoch: 3673

The dashed part of the orbit path shows where the satellite is in the earth's shadow,  

DLR